GW6640 Weather Reports


time (UTC)temp
F
wind
direction
speed
knots
gust
knots
rain 1hr
in
rain 24hr
in
rain mn
in
humidity
%
barometer
mb
20260906233504 74 336 6.1 10.4 0.00 0.00 0.00 33 1026.5
20260906233006 74 323 3.5 9.6 0.00 0.00 0.00 35 1026.6
20260906232507 73 306 3.5 9.6 0.00 0.00 0.00 36 1026.6
20260906232006 73 277 4.3 7.0 0.00 0.00 0.00 35 1026.7
20260906231516 73 251 2.6 5.2 0.00 0.00 0.00 36 1026.7
20260906231007 73 224 2.6 7.8 0.00 0.00 0.00 35 1026.7
20260906230507 73 227 2.6 7.8 0.00 0.00 0.00 34 1026.8
20260906230021 73 221 5.2 7.0 0.00 0.00 0.00 34 1026.9
20260906225514 73 273 3.5 7.0 0.00 0.00 0.00 33 1026.9
20260906225012 73 267 4.3 8.7 0.00 0.00 0.00 33 1026.9
20260906224527 74 267 5.2 9.6 0.00 0.00 0.00 33 1026.9
20260906224017 74 256 4.3 9.6 0.00 0.00 0.00 34 1026.9
20260906223516 74 248 5.2 7.0 0.00 0.00 0.00 34 1026.9
20260906223012 74 313 2.6 8.7 0.00 0.00 0.00 33 1026.9
20260906222503 73 273 4.3 8.7 0.00 0.00 0.00 33 1027.0
20260906222004 73 238 4.3 7.8 0.00 0.00 0.00 33 1027.1
20260906221513 73 235 2.6 9.6 0.00 0.00 0.00 34 1027.2
20260906221008 73 168 4.3 9.6 0.00 0.00 0.00 34 1027.1
20260906220507 73 188 3.5 10.4 0.00 0.00 0.00 34 1027.2
20260906220032 73 182 2.6 10.4 0.00 0.00 0.00 33 1027.2
20260906215508 73 150 5.2 9.6 0.00 0.00 0.00 34 1027.2
20260906215008 73 196 0.9 7.8 0.00 0.00 0.00 32 1027.3
20260906214524 74 160 4.3 7.8 0.00 0.00 0.00 31 1027.3
20260906214011 74 225 2.6 8.7 0.00 0.00 0.00 33 1027.3
20260906213514 74 166 3.5 8.7 0.00 0.00 0.00 34 1027.3
20260906213030 74 211 5.2 8.7 0.00 0.00 0.00 32 1027.3
20260906212516 74 156 4.3 8.7 0.00 0.00 0.00 32 1027.3
20260906212015 74 200 2.6 5.2 0.00 0.00 0.00 33 1027.3
20260906211508 74 71 0.9 7.0 0.00 0.00 0.00 35 1027.3
20260906211005 74 175 3.5 9.6 0.00 0.00 0.00 32 1027.3
20260906210512 75 211 5.2 9.6 0.00 0.00 0.00 32 1027.3
20260906210016 74 206 0.9 8.7 0.00 0.00 0.00 34 1027.3
20260906205509 74 205 5.2 8.7 0.00 0.00 0.00 32 1027.4
20260906205007 74 193 2.6 7.8 0.00 0.00 0.00 33 1027.4
20260906204519 74 184 2.6 8.7 0.00 0.00 0.00 32 1027.5
20260906204011 75 206 3.5 8.7 0.00 0.00 0.00 31 1027.4
20260906203513 75 185 3.5 11.3 0.00 0.00 0.00 32 1027.5
20260906203026 74 242 3.5 11.3 0.00 0.00 0.00 31 1027.6
20260906202519 74 195 5.2 12.2 0.00 0.00 0.00 33 1027.7
20260906202015 74 203 3.5 12.2 0.00 0.00 0.00 33 1027.7
20260906201534 73 246 3.5 8.7 0.00 0.00 0.00 33 1027.7
20260906201016 73 221 4.3 8.7 0.00 0.00 0.00 33 1027.7
20260906200505 73 249 2.6 8.7 0.00 0.00 0.00 35 1027.8
20260906200011 73 254 6.1 8.7 0.00 0.00 0.00 34 1027.9
20260906195507 73 266 3.5 8.7 0.00 0.00 0.00 34 1027.9
20260906195009 73 238 3.5 8.7 0.00 0.00 0.00 34 1027.9
20260906194520 73 242 3.5 7.8 0.00 0.00 0.00 34 1027.9
20260906194009 72 304 2.6 7.8 0.00 0.00 0.00 34 1028.0
20260906193512 73 250 3.5 8.7 0.00 0.00 0.00 33 1028.0
20260906193026 73 289 0.9 9.6 0.00 0.00 0.00 32 1028.0
20260906192513 74 247 5.2 12.2 0.00 0.00 0.00 32 1028.1
20260906192013 74 249 7.0 12.2 0.00 0.00 0.00 33 1028.1
20260906191529 74 186 6.1 11.3 0.00 0.00 0.00 34 1028.1
20260906191014 72 244 6.1 10.4 0.00 0.00 0.00 33 1028.1
20260906190515 72 259 4.3 8.7 0.00 0.00 0.00 35 1028.2
20260906190032 72 277 4.3 10.4 0.00 0.00 0.00 35 1028.3
20260906185520 73 238 3.5 10.4 0.00 0.00 0.00 35 1028.3
20260906185005 72 250 6.1 8.7 0.00 0.00 0.00 35 1028.2
20260906184517 72 194 2.6 11.3 0.00 0.00 0.00 35 1028.2
20260906184006 72 217 4.3 13.0 0.00 0.00 0.00 33 1028.3
20260906183508 72 252 7.8 13.0 0.00 0.00 0.00 32 1028.3
20260906183028 73 313 2.6 7.0 0.00 0.00 0.00 33 1028.3
20260906182513 73 308 2.6 11.3 0.00 0.00 0.00 31 1028.4
20260906182016 75 329 5.2 11.3 0.00 0.00 0.00 30 1028.5
20260906181551 75 233 6.1 9.6 0.00 0.00 0.00 30 1028.4
20260906181015 75 329 1.7 10.4 0.00 0.00 0.00 31 1028.5
20260906180513 74 311 3.5 10.4 0.00 0.00 0.00 32 1028.5
20260906180032 74 253 3.5 10.4 0.00 0.00 0.00 30 1028.6
20260906175519 74 259 6.1 13.0 0.00 0.00 0.00 31 1028.8
20260906175018 74 192 3.5 13.0 0.00 0.00 0.00 31 1029.1
20260906174536 73 272 5.2 13.0 0.00 0.00 0.00 32 1029.0
20260906174008 73 344 3.5 7.8 0.00 0.00 0.00 32 1029.0
20260906173507 73 237 1.7 7.8 0.00 0.00 0.00 35 1029.1
20260906173025 73 246 2.6 7.0 0.00 0.00 0.00 32 1029.2
20260906172512 72 247 2.6 7.8 0.00 0.00 0.00 33 1029.3
20260906172010 72 172 4.3 8.7 0.00 0.00 0.00 33 1029.3
20260906171532 72 271 5.2 8.7 0.00 0.00 0.00 33 1029.2
20260906171013 72 200 3.5 12.2 0.00 0.00 0.00 33 1029.2
20260906170515 71 265 3.5 12.2 0.00 0.00 0.00 32 1029.4
20260906170030 71 321 4.3 12.2 0.00 0.00 0.00 33 1029.4
20260906165519 71 282 4.3 12.2 0.00 0.00 0.00 33 1029.4
20260906165014 71 265 3.5 9.6 0.00 0.00 0.00 34 1029.3
20260906164534 71 207 5.2 9.6 0.00 0.00 0.00 32 1029.4
20260906164017 71 161 1.7 7.0 0.00 0.00 0.00 33 1029.4
20260906163517 70 257 1.7 7.8 0.00 0.00 0.00 35 1029.4
20260906163022 71 271 4.3 7.8 0.00 0.00 0.00 33 1029.3
20260906162510 70 207 2.6 7.0 0.00 0.00 0.00 33 1029.2
20260906162010 70 173 0.9 5.2 0.00 0.00 0.00 35 1029.2
20260906161529 70 165 1.7 8.7 0.00 0.00 0.00 35 1029.2
20260906161013 69 227 2.6 8.7 0.00 0.00 0.00 34 1029.3
20260906160513 69 248 4.3 7.8 0.00 0.00 0.00 34 1029.1
20260906160032 69 246 3.5 6.1 0.00 0.00 0.00 35 1029.0
20260906155516 68 221 3.5 7.0 0.00 0.00 0.00 34 1029.1
20260906155017 68 223 3.5 7.0 0.00 0.00 0.00 34 1029.0
20260906154530 68 203 2.6 7.0 0.00 0.00 0.00 35 1029.1
20260906154016 67 246 2.6 6.1 0.00 0.00 0.00 35 1029.2
20260906153516 66 244 3.5 7.8 0.00 0.00 0.00 36 1029.2
20260906153034 66 220 3.5 7.8 0.00 0.00 0.00 36 1029.2
20260906152515 65 222 2.6 4.3 0.00 0.00 0.00 39 1029.2
20260906152021 64 170 0.9 1.7 0.00 0.00 0.00 44 1029.2
20260906151517 64 281 0.9 1.7 0.00 0.00 0.00 49 1029.2
20260906151012 63 281 0.0 1.7 0.00 0.00 0.00 48 1029.0
20260906150512 63 281 0.9 1.7 0.00 0.00 0.00 51 1029.1
20260906150031 62 302 0.0 1.7 0.00 0.00 0.00 52 1029.0
20260906145513 62 38 0.0 1.7 0.00 0.00 0.00 54 1028.9
20260906145016 61 38 0.9 1.7 0.00 0.00 0.00 50 1028.9
20260906144531 60 38 0.9 1.7 0.00 0.00 0.00 54 1028.8
20260906144015 59 38 0.9 2.6 0.00 0.00 0.00 1028.8
20260906143519 58 38 0.0 2.6 0.00 0.00 0.00 1028.9
20260906143033 57 341 0.0 2.6 0.00 0.00 0.00 59 1028.9
20260906142516 56 5 0.9 1.7 0.00 0.00 0.00 59 1029.0
20260906142016 55 360 0.0 1.7 0.00 0.00 0.00 60 1029.0
20260906141532 54 17 0.0 1.7 0.00 0.00 0.00 62 1029.0
20260906141024 53 344 0.9 1.7 0.00 0.00 0.00 62 1029.0
20260906140519 52 26 0.0 1.7 0.00 0.00 0.00 64 1029.1
20260906140024 51 16 0.9 1.7 0.00 0.00 0.00 63 1029.1
20260906135511 50 40 1.7 1.7 0.00 0.00 0.00 63 1029.2
20260906135012 50 352 0.9 2.6 0.00 0.00 0.00 62 1029.1
20260906134527 50 31 0.9 2.6 0.00 0.00 0.00 62 1029.1
20260906134016 49 26 0.9 1.7 0.00 0.00 0.00 62 1029.2
20260906133515 49 27 0.9 1.7 0.00 0.00 0.00 62 1029.2
20260906133036 49 5 0.9 1.7 0.00 0.00 0.00 62 1029.0
20260906132515 49 5 0.0 1.7 0.00 0.00 0.00 62 1028.8
20260906132017 49 41 0.0 2.6 0.00 0.00 0.00 62 1028.7
20260906131531 48 37 0.9 2.6 0.00 0.00 0.00 62 1028.5
20260906131017 48 5 0.9 2.6 0.00 0.00 0.00 62 1028.5
20260906130516 48 360 1.7 2.6 0.00 0.00 0.00 62 1028.4
20260906130035 48 22 0.9 2.6 0.00 0.00 0.00 62 1028.4
20260906125516 48 5 0.9 1.7 0.00 0.00 0.00 62 1028.4
20260906125013 48 5 0.9 1.7 0.00 0.00 0.00 62 1028.5
20260906124526 48 5 0.9 1.7 0.00 0.00 0.00 61 1028.4
20260906124007 48 30 0.9 2.6 0.00 0.00 0.00 61 1028.3
20260906123508 48 360 0.9 2.6 0.00 0.00 0.00 60 1028.2
20260906123013 48 9 0.9 1.7 0.00 0.00 0.00 60 1028.1
20260906122504 48 32 1.7 1.7 0.00 0.00 0.00 59 1028.1
20260906122003 48 24 0.0 1.7 0.00 0.00 0.00 59 1028.1
20260906121512 48 360 0.9 2.6 0.00 0.00 0.00 59 1028.1
20260906121004 49 30 0.9 2.6 0.00 0.00 0.00 58 1028.1
20260906120510 49 24 0.0 0.9 0.00 0.00 0.00 57 1028.1
20260906120018 49 34 0.9 2.6 0.00 0.00 0.00 57 1028.1
20260906115507 49 34 0.9 2.6 0.00 0.00 0.00 56 1028.1
20260906115007 49 5 0.9 2.6 0.00 0.00 0.00 56 1028.2
20260906114534 49 45 1.7 2.6 0.00 0.00 0.00 55 1028.2
20260906114008 49 9 0.9 1.7 0.00 0.00 0.00 55 1028.2
20260906113510 49 5 0.0 1.7 0.00 0.00 0.00 55 1028.2
20260906113020 49 5 0.9 1.7 0.00 0.00 0.00 55 1028.1
20260906112510 48 5 0.9 1.7 0.00 0.00 0.00 55 1028.2
20260906112008 48 9 0.9 1.7 0.00 0.00 0.00 55 1028.2
20260906111517 48 339 0.9 1.7 0.00 0.00 0.00 56 1028.1
20260906111003 49 311 0.0 1.7 0.00 0.00 0.00 56 1028.1
20260906110507 49 23 0.0 2.6 0.00 0.00 0.00 55 1028.1
20260906110016 49 350 0.9 2.6 0.00 0.00 0.00 55 1028.1
20260906105509 49 333 0.9 1.7 0.00 0.00 0.00 55 1028.1
20260906105007 49 5 0.0 1.7 0.00 0.00 0.00 54 1028.1
20260906104522 50 30 0.9 1.7 0.00 0.00 0.00 54 1028.1
20260906104008 50 328 0.0 1.7 0.00 0.00 0.00 52 1028.1
20260906103508 50 315 0.0 2.6 0.00 0.00 0.00 52 1028.1
20260906103026 50 333 0.9 3.5 0.00 0.00 0.00 51 1028.0
20260906102508 51 333 1.7 3.5 0.00 0.00 0.00 50 1027.9
20260906102012 50 339 1.7 3.5 0.00 0.00 0.00 50 1028.0
20260906101524 50 352 0.9 3.5 0.00 0.00 0.00 50 1028.0
20260906101015 50 341 1.7 1.7 0.00 0.00 0.00 49 1028.0
20260906100504 50 23 0.9 1.7 0.00 0.00 0.00 50 1028.1
20260906100010 50 352 0.9 2.6 0.00 0.00 0.00 50 1028.1
20260906095508 50 5 0.9 2.6 0.00 0.00 0.00 50 1028.1
20260906095005 50 360 0.9 2.6 0.00 0.00 0.00 49 1028.0
20260906094516 50 352 0.9 2.6 0.00 0.00 0.00 49 1027.9
20260906094008 50 17 0.9 1.7 0.00 0.00 0.00 48 1027.9
20260906093508 50 32 0.0 4.3 0.00 0.00 0.00 47 1028.0
20260906093026 51 9 0.0 4.3 0.00 0.00 0.00 49 1028.0
20260906092512 50 42 1.7 3.5 0.00 0.00 0.00 47 1028.0
20260906092011 51 352 1.7 3.5 0.00 0.00 0.00 46 1028.1
20260906091532 51 12 1.7 3.5 0.00 0.00 0.00 47 1028.1
20260906091011 51 31 1.7 3.5 0.00 0.00 0.00 47 1028.0
20260906090511 51 351 0.9 3.5 0.00 0.00 0.00 47 1028.0
20260906090025 51 349 2.6 7.0 0.00 0.00 0.00 46 1028.0
20260906085511 51 352 1.7 7.0 0.00 0.00 0.00 47 1028.0
20260906085004 51 5 2.6 4.3 0.00 0.00 0.00 46 1028.1
20260906084512 51 360 0.9 2.6 0.00 0.00 0.00 47 1028.2
20260906084009 50 352 1.7 2.6 0.00 0.00 0.00 47 1028.2
20260906083506 50 35 0.9 2.6 0.00 0.00 0.00 47 1028.3
20260906083020 50 55 0.9 2.6 0.00 0.00 0.00 49 1028.3
20260906082510 50 5 0.9 2.6 0.00 0.00 0.00 49 1028.4
20260906082013 50 53 1.7 2.6 0.00 0.00 0.00 52 1028.3
20260906081534 50 65 1.7 5.2 0.00 0.00 0.00 50 1028.4
20260906081013 51 40 1.7 5.2 0.00 0.00 0.00 51 1028.5
20260906080513 52 334 0.9 4.3 0.00 0.00 0.00 48 1028.4
20260906080031 52 39 0.9 2.6 0.00 0.00 0.00 47 1028.5
20260906075512 52 340 0.9 2.6 0.00 0.00 0.00 47 1028.5
20260906075016 52 67 1.7 2.6 0.00 0.00 0.00 47 1028.4
20260906074527 52 303 0.9 1.7 0.00 0.00 0.00 48 1028.4
20260906074016 52 41 0.9 3.5 0.00 0.00 0.00 48 1028.4
20260906073503 51 20 0.9 4.3 0.00 0.00 0.00 48 1028.4
20260906073019 51 58 0.9 4.3 0.00 0.00 0.00 49 1028.3
20260906072508 51 17 0.9 5.2 0.00 0.00 0.00 50 1028.4
20260906072010 51 25 0.9 5.2 0.00 0.00 0.00 53 1028.4
20260906071531 51 352 0.0 2.6 0.00 0.00 0.00 51 1028.4
20260906071015 51 352 0.9 4.3 0.00 0.00 0.00 52 1028.4
20260906070514 51 260 1.7 5.2 0.00 0.00 0.00 52 1028.4
20260906070030 51 61 2.6 5.2 0.00 0.00 0.00 53 1028.4
20260906065515 51 72 0.9 5.2 0.00 0.00 0.00 53 1028.4
20260906065012 51 294 0.9 5.2 0.00 0.00 0.00 54 1028.3
20260906064531 51 39 0.9 3.5 0.00 0.00 0.00 54 1028.4
20260906064014 51 46 1.7 3.5 0.00 0.00 0.00 55 1028.5
20260906063511 51 336 0.9 3.5 0.00 0.00 0.00 55 1028.6
20260906063031 51 39 0.9 2.6 0.00 0.00 0.00 54 1028.7
20260906062515 51 43 1.7 2.6 0.00 0.00 0.00 54 1028.6
20260906062008 51 53 1.7 2.6 0.00 0.00 0.00 54 1028.5
20260906061522 52 51 0.0 2.6 0.00 0.00 0.00 54 1028.4
20260906061011 52 56 1.7 3.5 0.00 0.00 0.00 53 1028.3
20260906060513 53 9 0.9 4.3 0.00 0.00 0.00 54 1028.4
20260906060024 53 12 0.9 3.5 0.00 0.00 0.00 54 1028.5
20260906055513 53 11 0.0 5.2 0.00 0.00 0.00 54 1028.5
20260906055018 53 360 2.6 5.2 0.00 0.00 0.00 54 1028.4
20260906054530 53 340 0.9 3.5 0.00 0.00 0.00 54 1028.5
20260906054016 53 36 1.7 3.5 0.00 0.00 0.00 54 1028.5
20260906053518 53 46 1.7 3.5 0.00 0.00 0.00 55 1028.6
20260906053032 53 347 1.7 3.5 0.00 0.00 0.00 54 1028.6
20260906052517 53 352 1.7 3.5 0.00 0.00 0.00 54 1028.5
20260906052014 53 352 0.9 2.6 0.00 0.00 0.00 54 1028.6
20260906051534 53 344 1.7 2.6 0.00 0.00 0.00 55 1028.5
20260906051015 52 352 0.9 2.6 0.00 0.00 0.00 56 1028.5
20260906050507 52 47 1.7 3.5 0.00 0.00 0.00 57 1028.5
20260906050023 52 281 0.9 3.5 0.00 0.00 0.00 57 1028.6
20260906045516 52 318 0.0 3.5 0.00 0.00 0.00 57 1028.5
20260906045015 52 360 1.7 2.6 0.00 0.00 0.00 58 1028.6
20260906044528 52 44 1.7 2.6 0.00 0.00 0.00 58 1028.6
20260906044016 53 29 0.9 1.7 0.00 0.00 0.00 58 1028.7
20260906043518 53 292 0.9 2.6 0.00 0.00 0.00 57 1028.7
20260906043038 53 292 0.0 2.6 0.00 0.00 0.00 56 1028.8
20260906042515 54 65 1.7 2.6 0.00 0.00 0.00 56 1028.7
20260906042016 54 14 0.9 2.6 0.00 0.00 0.00 56 1028.7
20260906041536 54 69 1.7 2.6 0.00 0.00 0.00 55 1028.7
20260906041018 54 342 0.0 2.6 0.00 0.00 0.00 55 1028.7
20260906040517 55 338 0.9 1.7 0.00 0.00 0.00 54 1028.7
20260906040037 55 304 0.9 1.7 0.00 0.00 0.00 54 1028.8
20260906035519 55 360 0.0 1.7 0.00 0.00 0.00 53 1028.7
20260906035010 55 13 0.9 1.7 0.00 0.00 0.00 53 1028.8
20260906034529 56 342 0.9 2.6 0.00 0.00 0.00 52 1028.8
20260906034012 57 28 0.9 4.3 0.00 0.00 0.00 52 1028.5
20260906033511 57 360 1.7 4.3 0.00 0.00 0.00 51 1028.5
20260906033030 57 342 2.6 4.3 0.00 0.00 0.00 50 1028.6
20260906032515 57 352 2.6 4.3 0.00 0.00 0.00 50 1028.9
20260906032021 57 352 0.9 3.5 0.00 0.00 0.00 49 1028.8
20260906031558 58 5 0.9 2.6 0.00 0.00 0.00 48 1028.6
20260906031015 58 345 0.9 2.6 0.00 0.00 0.00 48 1028.6
20260906030515 59 13 0.9 1.7 0.00 0.00 0.00 47 1028.4
20260906030031 59 5 0.9 1.7 0.00 0.00 0.00 46 1028.4
20260906025517 60 351 0.9 1.7 0.00 0.00 0.00 45 1028.3
20260906025016 61 18 0.9 2.6 0.00 0.00 0.00 44 1028.2
20260906024542 61 352 0.9 3.5 0.00 0.00 0.00 43 1028.2
20260906024010 62 341 0.9 3.5 0.00 0.00 0.00 43 1028.3
20260906023514 62 22 0.9 3.5 0.00 0.00 0.00 41 1028.3
20260906023029 63 312 0.9 7.0 0.00 0.00 0.00 42 1028.2
20260906022518 63 336 1.7 12.2 0.00 0.00 0.00 42 1028.1
20260906022014 63 277 6.1 12.2 0.00 0.00 0.00 41 1028.0
20260906021532 63 304 2.6 7.8 0.00 0.00 0.00 41 1028.0
20260906021022 64 269 3.5 7.8 0.00 0.00 0.00 40 1028.0
20260906020516 64 313 2.6 7.8 0.00 0.00 0.00 40 1028.0
20260906020045 64 265 3.5 7.0 0.00 0.00 0.00 39 1027.8
20260906015515 65 292 4.3 8.7 0.00 0.00 0.00 39 1027.8
20260906015019 65 270 4.3 8.7 0.00 0.00 0.00 39 1027.9
20260906014534 66 261 4.3 8.7 0.00 0.00 0.00 38 1027.9
20260906014021 66 265 4.3 8.7 0.00 0.00 0.00 38 1027.9
20260906013519 66 279 4.3 8.7 0.00 0.00 0.00 38 1027.9
20260906013034 67 267 5.2 8.7 0.00 0.00 0.00 38 1027.8
20260906012513 68 277 3.5 7.8 0.00 0.00 0.00 37 1027.8
20260906012017 68 282 3.5 8.7 0.00 0.00 0.00 36 1027.7
20260906011528 69 284 3.5 9.6 0.00 0.00 0.00 37 1027.7
20260906011013 69 261 5.2 11.3 0.00 0.00 0.00 36 1027.6
20260906010513 70 261 4.3 11.3 0.00 0.00 0.00 36 1027.7
20260906010035 70 252 6.1 9.6 0.00 0.00 0.00 35 1027.7
20260906005517 71 260 4.3 7.0 0.00 0.00 0.00 35 1027.8
20260906005016 71 266 2.6 7.0 0.00 0.00 0.00 34 1027.8
20260906004536 71 261 2.6 9.6 0.00 0.00 0.00 35 1027.8
20260906004017 71 258 5.2 10.4 0.00 0.00 0.00 34 1027.7
20260906003515 71 263 7.0 10.4 0.00 0.00 0.00 33 1027.7
20260906003033 71 252 3.5 8.7 0.00 0.00 0.00 34 1027.7
20260906002515 71 244 5.2 8.7 0.00 0.00 0.00 34 1027.7
20260906002016 71 238 4.3 7.8 0.00 0.00 0.00 34 1027.7
20260906001539 72 251 5.2 7.8 0.00 0.00 0.00 33 1027.7
20260906001020 72 285 4.3 7.8 0.00 0.00 0.00 32 1027.6
20260906000515 72 316 4.3 10.4 0.00 0.00 0.00 33 1027.6
20260906000032 72 265 4.3 12.2 0.00 0.00 0.00 33 1027.6
20260905235515 73 269 7.0 12.2 0.00 0.00 0.00 33 1027.6
20260905235019 73 275 4.3 8.7 0.00 0.00 0.00 33 1027.5
20260905234534 73 254 6.1 9.6 0.00 0.00 0.00 33 1027.6
20260905234019 73 182 5.2 9.6 0.00 0.00 0.00 33 1027.6